Date,TemperatureHighF,TemperatureAvgF,TemperatureLowF,DewpointHighF,DewpointAvgF,DewpointLowF,HumidityHigh,HumidityAvg,HumidityLow,PressureMaxIn,PressureMinIn,WindSpeedMaxMPH,WindSpeedAvgMPH,GustSpeedMaxMPH,PrecipitationSumIn
2013-8-1,83.5,72.7,65.7,71.7,66.0,62.0,90,80,62,29.98,29.81,9,1,9,0.14
2013-8-2,85.3,74.0,63.0,68.8,62.0,57.9,88,68,44,29.96,29.87,7,1,7,0.00
2013-8-3,73.1,68.3,65.7,66.1,62.1,58.4,88,81,73,29.97,29.92,6,1,6,0.15
2013-8-4,78.3,69.5,60.8,64.4,58.4,53.6,90,70,46,30.03,29.92,11,2,11,0.02
2013-8-5,80.5,68.9,56.2,62.7,56.1,50.4,83,65,43,30.10,29.99,7,1,7,0.00
2013-8-6,79.4,70.3,63.0,69.5,62.6,57.1,87,77,65,30.03,29.96,5,1,5,0.11
2013-8-7,86.4,73.8,67.1,72.7,67.5,63.0,88,81,59,30.03,29.95,11,1,11,0.16
2013-8-8,81.0,74.8,68.8,74.0,69.8,65.3,90,85,74,30.00,29.93,9,1,9,0.09
2013-8-9,83.9,77.3,72.2,76.8,71.1,68.8,91,82,68,29.97,29.87,10,2,10,0.01
2013-8-10,81.4,75.0,70.0,69.3,65.9,58.8,86,74,50,30.07,29.95,4,0,4,0.02
2013-8-11,88.6,76.6,68.8,72.0,67.1,63.1,86,74,51,30.09,29.97,6,1,6,0.00
2013-8-12,89.1,78.0,68.8,69.9,67.1,64.7,88,71,50,30.02,29.89,7,1,7,0.00
2013-8-13,85.3,75.1,67.7,73.1,66.7,58.2,88,76,56,29.89,29.74,6,1,6,0.22
2013-8-14,73.1,65.5,57.4,58.7,51.3,46.9,72,61,47,30.10,29.84,10,2,10,0.00
2013-8-15,79.7,64.7,50.8,58.3,50.9,45.7,86,63,38,30.17,30.07,6,1,6,0.00
2013-8-16,82.8,66.4,52.0,61.6,53.4,47.0,85,65,39,30.18,30.10,8,1,8,0.00
2013-8-17,79.6,67.8,53.1,62.1,56.2,47.8,85,68,48,30.25,30.18,7,1,7,0.00
2013-8-18,69.1,65.2,62.3,61.0,59.4,57.5,86,81,72,30.23,30.15,5,1,5,0.12
2013-8-19,79.6,68.7,60.5,69.0,62.9,56.6,90,82,67,30.15,30.03,6,1,6,0.00
2013-8-20,85.5,73.8,63.7,71.2,64.3,59.7,90,74,53,30.16,30.07,7,1,7,0.01
2013-8-21,90.9,75.0,65.2,73.6,66.2,60.2,86,75,54,30.18,30.05,7,1,7,0.07
2013-8-22,85.9,74.6,67.1,70.4,65.5,63.1,88,75,55,30.08,29.93,8,1,8,0.01
2013-8-23,73.3,69.4,61.6,65.2,63.3,57.3,89,81,70,30.11,29.94,5,1,5,0.76
2013-8-24,82.3,67.6,56.5,66.3,58.1,53.0,90,74,48,30.31,30.11,5,1,5,0.01
2013-8-25,83.9,68.8,55.3,65.9,58.2,51.1,88,71,48,30.38,30.23,10,1,10,0.00
2013-8-26,87.8,73.7,62.6,67.3,61.8,56.7,83,68,47,30.25,30.01,11,2,11,0.00
2013-8-27,85.9,76.7,68.9,72.0,66.6,60.8,80,71,61,30.01,29.89,8,1,8,0.00
2013-8-28,76.0,73.0,70.6,71.4,68.3,65.9,90,85,76,29.92,29.79,8,1,8,0.27
2013-8-29,82.8,75.0,68.8,71.9,68.5,64.1,90,81,65,30.01,29.84,6,1,6,0.01
2013-8-30,88.9,75.8,64.4,72.5,66.9,60.8,91,75,51,30.01,29.86,14,2,14,0.00
2013-8-31,90.5,77.0,70.9,73.1,68.4,65.4,85,76,53,29.88,29.78,10,3,10,0.00